| time (UTC) | temp C | wind direction | speed KPH | gust KPH | rain 1hr cm | rain 24hr cm | rain mn cm | humidity % | barometer mb |
| 20260905164501 | 13 | 275 | 1.6 | 9.7 | 0.00 | 0.00 | 0.00 | 34 | 1009.5 |
| 20260905163059 | 13 | 280 | 3.2 | 14.5 | 0.00 | 0.00 | 0.00 | 34 | 1009.4 |
| 20260905161558 | 13 | 74 | 8.0 | 14.5 | 0.00 | 0.00 | 0.00 | 42 | 1009.4 |
| 20260905160057 | 12 | 130 | 4.8 | 14.5 | 0.00 | 0.00 | 0.00 | 43 | 1009.5 |
| 20260905154556 | 12 | 58 | 1.6 | 8.0 | 0.00 | 0.00 | 0.00 | 45 | 1009.6 |
| 20260905153053 | 11 | 229 | 0.0 | 6.4 | 0.00 | 0.00 | 0.00 | 47 | 1009.4 |
| 20260905151551 | 11 | 115 | 1.6 | 8.0 | 0.00 | 0.00 | 0.00 | 47 | 1009.4 |
| 20260905150052 | 10 | 68 | 3.2 | 24.1 | 0.00 | 0.00 | 0.00 | 47 | 1009.1 |
| 20260905144546 | 9 | 247 | 8.0 | 24.1 | 0.00 | 0.00 | 0.00 | 43 | 1009.0 |
| 20260905143041 | 9 | 284 | 9.7 | 30.6 | 0.00 | 0.00 | 0.00 | 45 | 1009.0 |
| 20260905141540 | 8 | 273 | 11.3 | 37.0 | 0.00 | 0.00 | 0.00 | 48 | 1008.7 |
| 20260905140045 | 8 | 241 | 11.3 | 37.0 | 0.00 | 0.00 | 0.00 | 48 | 1008.3 |
| 20260905134541 | -17 | 0.0 | 0.0 | 0.00 | 0.00 | 0.00 | 1008.2 | ||
| 20260905133029 | -17 | 0.0 | 0.0 | 0.00 | 0.00 | 0.00 | 1008.0 | ||
| 20260905131530 | -17 | 0.0 | 0.0 | 0.00 | 0.00 | 0.00 | 1007.9 | ||
| 20260905130035 | -17 | 0.0 | 0.0 | 0.00 | 0.00 | 0.00 | 1008.1 | ||
| 20260905124523 | -17 | 0.0 | 0.0 | 0.00 | 0.00 | 0.00 | 1008.1 | ||
| 20260905123016 | -17 | 0.0 | 0.0 | 0.00 | 0.00 | 0.00 | 1008.1 | ||
| 20260905121510 | -17 | 0.0 | 0.0 | 0.00 | 0.00 | 0.00 | 1008.2 | ||
| 20260905120006 | -17 | 0.0 | 0.0 | 0.00 | 0.00 | 0.00 | 1008.5 | ||
| 20260905114504 | 7 | 277 | 8.0 | 25.7 | 0.00 | 0.00 | 0.00 | 58 | 1008.7 |
| 20260905113003 | 7 | 263 | 11.3 | 41.8 | 0.00 | 0.00 | 0.00 | 58 | 1008.7 |
| 20260905111503 | 7 | 227 | 11.3 | 29.0 | 0.00 | 0.00 | 0.00 | 61 | 1008.6 |
| 20260905110003 | 7 | 256 | 8.0 | 38.6 | 0.00 | 0.00 | 0.00 | 61 | 1008.7 |
| 20260905104613 | 7 | 275 | 9.7 | 25.7 | 0.00 | 0.00 | 0.00 | 61 | 1008.5 |
| 20260905103100 | 7 | 214 | 9.7 | 24.1 | 0.00 | 0.00 | 0.00 | 59 | 1008.6 |
| 20260905101604 | 8 | 269 | 9.7 | 43.5 | 0.00 | 0.00 | 0.00 | 55 | 1008.7 |
| 20260905100105 | 8 | 317 | 8.0 | 24.1 | 0.00 | 0.00 | 0.00 | 57 | 1008.7 |
| 20260905094555 | 7 | 267 | 4.8 | 24.1 | 0.00 | 0.00 | 0.00 | 61 | 1008.7 |
| 20260905093054 | 7 | 271 | 9.7 | 22.5 | 0.00 | 0.00 | 0.00 | 63 | 1008.7 |
| 20260905091553 | 7 | 256 | 11.3 | 27.4 | 0.00 | 0.00 | 0.00 | 63 | 1008.8 |
| 20260905090114 | 7 | 273 | 9.7 | 35.4 | 0.00 | 0.00 | 0.00 | 62 | 1009.0 |
| 20260905084550 | 7 | 265 | 8.0 | 27.4 | 0.00 | 0.00 | 0.00 | 66 | 1009.0 |
| 20260905083047 | 7 | 282 | 9.7 | 30.6 | 0.00 | 0.00 | 0.00 | 67 | 1008.8 |
| 20260905081546 | 7 | 168 | 9.7 | 32.2 | 0.00 | 0.00 | 0.00 | 70 | 1009.0 |
| 20260905080044 | 7 | 275 | 12.9 | 37.0 | 0.00 | 0.00 | 0.00 | 73 | 1009.0 |
| 20260905074545 | 7 | 215 | 9.7 | 25.7 | 0.00 | 0.00 | 0.00 | 73 | 1009.1 |
| 20260905073045 | 7 | 267 | 9.7 | 30.6 | 0.00 | 0.00 | 0.00 | 72 | 1009.1 |
| 20260905071539 | 7 | 242 | 8.0 | 27.4 | 0.00 | 0.00 | 0.00 | 73 | 1009.1 |
| 20260905070046 | 7 | 252 | 8.0 | 37.0 | 0.00 | 0.00 | 0.00 | 72 | 1009.0 |
| 20260905064539 | 7 | 249 | 9.7 | 30.6 | 0.00 | 0.00 | 0.00 | 71 | 1008.7 |
| 20260905063037 | 7 | 292 | 9.7 | 30.6 | 0.00 | 0.00 | 0.00 | 72 | 1008.6 |
| 20260905061541 | 7 | 305 | 9.7 | 27.4 | 0.00 | 0.00 | 0.00 | 73 | 1008.6 |
| 20260905060037 | 7 | 288 | 12.9 | 35.4 | 0.00 | 0.00 | 0.00 | 71 | 1008.6 |
| 20260905054538 | 7 | 284 | 14.5 | 40.2 | 0.00 | 0.00 | 0.00 | 71 | 1008.7 |
| 20260905053035 | 7 | 15 | 6.4 | 30.6 | 0.00 | 0.00 | 0.00 | 74 | 1008.7 |
| 20260905051534 | 7 | 286 | 9.7 | 33.8 | 0.00 | 0.00 | 0.00 | 73 | 1008.5 |
| 20260905050033 | 8 | 272 | 14.5 | 29.0 | 0.00 | 0.00 | 0.00 | 73 | 1008.5 |
| 20260905044533 | 8 | 280 | 8.0 | 32.2 | 0.00 | 0.00 | 0.00 | 74 | 1008.4 |
| 20260905043031 | 8 | 198 | 9.7 | 32.2 | 0.00 | 0.00 | 0.00 | 74 | 1008.3 |
| 20260905041546 | 8 | 309 | 16.1 | 30.6 | 0.00 | 0.00 | 0.00 | 74 | 1008.1 |
| 20260905040031 | 8 | 267 | 8.0 | 32.2 | 0.00 | 0.00 | 0.00 | 72 | 1007.8 |
| 20260905034529 | 8 | 242 | 12.9 | 37.0 | 0.00 | 0.00 | 0.00 | 72 | 1007.6 |
| 20260905033028 | 8 | 303 | 9.7 | 29.0 | 0.00 | 0.00 | 0.00 | 72 | 1007.6 |
| 20260905031527 | 8 | 260 | 6.4 | 22.5 | 0.00 | 0.00 | 0.00 | 75 | 1007.5 |
| 20260905030026 | 8 | 275 | 8.0 | 32.2 | 0.00 | 0.00 | 0.00 | 75 | 1007.3 |
| 20260905024530 | 8 | 277 | 6.4 | 22.5 | 0.00 | 0.00 | 0.00 | 76 | 1007.2 |
| 20260905023024 | 9 | 277 | 4.8 | 32.2 | 0.00 | 0.00 | 0.00 | 73 | 1006.9 |
| 20260905021531 | 9 | 248 | 11.3 | 22.5 | 0.00 | 0.00 | 0.00 | 74 | 1007.2 |
| 20260905020025 | 9 | 304 | 8.0 | 25.7 | 0.00 | 0.00 | 0.00 | 74 | 1007.1 |
| 20260905014524 | 10 | 229 | 11.3 | 30.6 | 0.00 | 0.00 | 0.00 | 72 | 1007.2 |
| 20260905013024 | 10 | 199 | 8.0 | 24.1 | 0.00 | 0.00 | 0.00 | 70 | 1007.2 |
| 20260905011523 | 10 | 202 | 12.9 | 27.4 | 0.00 | 0.00 | 0.00 | 68 | 1007.2 |
| 20260905010021 | 11 | 289 | 8.0 | 19.3 | 0.00 | 0.00 | 0.00 | 65 | 1007.2 |
| 20260905004521 | 11 | 277 | 6.4 | 24.1 | 0.00 | 0.00 | 0.00 | 65 | 1007.0 |
| 20260905003021 | 12 | 234 | 8.0 | 37.0 | 0.00 | 0.00 | 0.00 | 62 | 1006.9 |
| 20260905001519 | 12 | 277 | 8.0 | 30.6 | 0.00 | 0.00 | 0.00 | 61 | 1006.9 |
| 20260905000019 | 13 | 278 | 8.0 | 27.4 | 0.00 | 0.00 | 0.00 | 60 | 1006.8 |
| 20260904234520 | 13 | 283 | 8.0 | 32.2 | 0.00 | 0.00 | 0.00 | 59 | 1007.0 |
| 20260904233018 | 13 | 202 | 12.9 | 32.2 | 0.00 | 0.00 | 0.00 | 57 | 1006.8 |
| 20260904231518 | 13 | 229 | 9.7 | 29.0 | 0.00 | 0.00 | 0.00 | 56 | 1006.7 |
| 20260904230019 | 14 | 232 | 6.4 | 35.4 | 0.00 | 0.00 | 0.00 | 55 | 1006.8 |
| 20260904224517 | 14 | 271 | 8.0 | 30.6 | 0.00 | 0.00 | 0.00 | 54 | 1006.8 |
| 20260904223017 | 14 | 250 | 8.0 | 22.5 | 0.00 | 0.00 | 0.00 | 54 | 1006.8 |
| 20260904221519 | 13 | 232 | 16.1 | 37.0 | 0.00 | 0.00 | 0.00 | 54 | 1007.0 |
| 20260904220018 | 14 | 258 | 16.1 | 37.0 | 0.00 | 0.00 | 0.00 | 52 | 1006.9 |
| 20260904214518 | 14 | 214 | 6.4 | 19.3 | 0.00 | 0.00 | 0.00 | 53 | 1006.8 |
| 20260904213017 | 13 | 260 | 16.1 | 48.3 | 0.00 | 0.00 | 0.00 | 51 | 1006.9 |
| 20260904211514 | 14 | 237 | 11.3 | 43.5 | 0.00 | 0.00 | 0.00 | 51 | 1006.7 |
| 20260904210016 | 14 | 157 | 6.4 | 25.7 | 0.00 | 0.00 | 0.00 | 49 | 1006.4 |
| 20260904204517 | 14 | 166 | 9.7 | 22.5 | 0.00 | 0.00 | 0.00 | 48 | 1006.1 |
| 20260904203018 | 14 | 214 | 9.7 | 32.2 | 0.00 | 0.00 | 0.00 | 49 | 1006.3 |
| 20260904201512 | 14 | 259 | 11.3 | 38.6 | 0.00 | 0.00 | 0.00 | 48 | 1006.2 |
| 20260904200012 | 14 | 302 | 4.8 | 29.0 | 0.00 | 0.00 | 0.00 | 50 | 1006.2 |
| 20260904194511 | 14 | 269 | 12.9 | 29.0 | 0.00 | 0.00 | 0.00 | 47 | 1006.1 |
| 20260904193011 | 14 | 132 | 4.8 | 35.4 | 0.00 | 0.00 | 0.00 | 50 | 1006.1 |
| 20260904191509 | 14 | 219 | 6.4 | 25.7 | 0.00 | 0.00 | 0.00 | 47 | 1006.0 |
| 20260904190009 | 13 | 294 | 14.5 | 33.8 | 0.00 | 0.00 | 0.00 | 47 | 1006.0 |
| 20260904184517 | 13 | 267 | 6.4 | 30.6 | 0.00 | 0.00 | 0.00 | 48 | 1006.1 |
| 20260904183006 | 13 | 290 | 14.5 | 37.0 | 0.00 | 0.00 | 0.00 | 49 | 1006.1 |
| 20260904181517 | 13 | 206 | 11.3 | 30.6 | 0.00 | 0.00 | 0.00 | 49 | 1006.0 |
| 20260904180002 | 13 | 260 | 6.4 | 32.2 | 0.00 | 0.00 | 0.00 | 51 | 1005.9 |
| 20260904174502 | 13 | 259 | 14.5 | 32.2 | 0.00 | 0.00 | 0.00 | 48 | 1005.7 |
| 20260904173001 | 13 | 227 | 8.0 | 24.1 | 0.00 | 0.00 | 0.00 | 49 | 1005.7 |
| 20260904171620 | 12 | 271 | 9.7 | 32.2 | 0.00 | 0.00 | 0.00 | 45 | 1005.7 |
| 20260904171501 | 12 | 244 | 11.3 | 32.2 | 0.00 | 0.00 | 0.00 | 48 | 1005.6 |
| 20260904170058 | 12 | 253 | 4.8 | 56.3 | 0.00 | 0.00 | 0.00 | 43 | 1005.3 |